Lid_Strength_Index
16 15 14 13 11 10 8 4 1 2 2 2 3 3 5 5 6 6 7 7 8 9
14 15 15 14 12 11 9 8 3 2 2 3 3 4 5 6 7 7 7 8 9 9
13 13 14 14 14 13 11 9 9 3 3 3 4 4 5 5 6 7 8 8 9 9
12 12 13 14 14 13 12 11 11 8 6 7 6 5 5 6 6 7 8 8 9 9
13 13 13 13 13 13 13 12 12 10 7 8 8 7 7 7 7 7 8 9 10 9
14 14 13 13 13 13 14 14 13 13 11 10 9 9 8 8 8 7 8 9 10 10
15 15 14 14 13 13 14 15 15 14 13 12 12 11 10 9 8 7 7 8 8 9
16 16 15 15 15 14 14 15 15 15 16 15 13 12 12 11 10 9 8 7 8 8
16 16 16 16 16 16 15 15 15 15 16 16 15 12 12 11 11 11 10 9 9 8
17 17 17 16 17 18 18 17 16 15 15 16 16 13 13 13 12 12 12 12 11 11
17 18 18 17 18 18 18 19 18 17 15 15 15 14 13 13 14 13 13 13 13 13
16 18 19 19 18 18 18 19 19 18 17 16 16 14 13 13 14 15 14 14 13 13
17 18 19 19 19 18 18 18 18 18 17 17 17 16 13 13 14 15 15 15 15 14
18 18 17 18 19 20 20 19 19 18 17 17 18 18 15 14 15 15 15 15 15 15